Weather reports worldwide

Advertisment
Tulloch Bridge, United Kingdom (3047): temperature & dewpoint: 17.09.2020 07:00:00 - 23.09.2020 07:00:00 (BST)Tulloch Bridge, United Kingdom (3047): temperature -20cm & temperature -100cm: 17.09.2020 07:00:00 - 23.09.2020 07:00:00 (BST)Tulloch Bridge, United Kingdom (3047): wind speed & gusts: 17.09.2020 07:00:00 - 23.09.2020 07:00:00 (BST)Tulloch Bridge, United Kingdom (3047): wind direction: 17.09.2020 07:00:00 - 23.09.2020 07:00:00 (BST)Tulloch Bridge, United Kingdom (3047): reduced air pressure: 17.09.2020 07:00:00 - 23.09.2020 07:00:00 (BST)Tulloch Bridge, United Kingdom (3047): visibility: 17.09.2020 07:00:00 - 23.09.2020 07:00:00 (BST)Tulloch Bridge, United Kingdom (3047): precipitation: 17.09.2020 07:00:00 - 23.09.2020 07:00:00 (BST)
Date & Time tt [°C] td [°C] tt -20cm [°C] tt -100cm [°C] ff [km/h] ff [kn] fx [km/h] fx [kn] dd ppp [hPa] vv [km] rr [mm]
23.09.2020 07:00:00 1,6 1,2 - - 4 2 - - SSW 1002,9 0,4 -
23.09.2020 06:00:00 3,4 2,7 - - 2 1 - - ESE 1002,5 1,0 0,0
23.09.2020 05:00:00 4,4 3,9 - - 4 2 - - N 1002,4 50 0,0
23.09.2020 04:00:00 5,0 4,9 - - 4 2 - - E 1001,8 45 0,0
23.09.2020 03:00:00 4,7 4,0 - - 4 2 - - ENE 1001,7 50 0,0
23.09.2020 02:00:00 6,5 4,0 - - 11 6 - - W 1001,5 50 0,0
23.09.2020 01:00:00 7,1 4,1 - - 16 9 - - W 1000,5 50 0,0
23.09.2020 00:00:00 7,4 5,5 - - 18 10 - - W 999,8 19 0,0
22.09.2020 23:00:00 8,0 6,5 - - 22 12 - - W 999,0 4,2 1,2
22.09.2020 22:00:00 10,3 8,1 - - 13 7 - - W 996,8 45 0,2
22.09.2020 21:00:00 10,8 9,3 - - 18 10 54 29 SSW 995,7 11 0,6
22.09.2020 20:00:00 11,8 10,4 - - 21 11 - - SSW 995,4 15 1,6
22.09.2020 19:00:00 12,5 11,6 - - 21 11 - - SSW 995,0 6 1,0
22.09.2020 18:00:00 12,3 11,7 - - 21 11 - - SSW 995,1 8 1,6
22.09.2020 17:00:00 12,0 11,4 - - 24 13 - - S 995,6 8 1,0
22.09.2020 16:00:00 11,6 11,0 - - 24 13 - - SSW 996,5 6 1,2
22.09.2020 15:00:00 11,4 10,8 - - 22 12 - - SSW 997,3 6 1,6
22.09.2020 14:00:00 11,5 10,5 - - 18 10 - - WSW 997,9 4,7 1,0
22.09.2020 13:00:00 10,8 9,6 - - 13 7 - - SW 998,6 3,4 0,8
22.09.2020 12:00:00 11,3 9,3 - - 18 10 - - SW 999,5 7 0,0
22.09.2020 11:00:00 11,3 8,9 - - 21 11 - - SSW 1000,7 50 0,0
22.09.2020 10:00:00 11,6 8,7 13,2 13,4 24 13 - - S 1001,1 45 0,0
22.09.2020 09:00:00 11,7 8,3 - - 18 10 - - S 1001,5 50 0,0
22.09.2020 08:00:00 11,5 8,5 - - 21 11 - - S 1002,4 50 0,0
22.09.2020 07:00:00 11,2 8,5 - - 18 10 - - S 1003,5 50 0,0
22.09.2020 06:00:00 11,1 8,9 - - 15 8 - - SSW 1004,4 30 0,0
22.09.2020 05:00:00 11,1 9,4 - - 11 6 - - SSW 1005,9 50 0,0
22.09.2020 04:00:00 11,4 9,2 - - 13 7 - - S 1007,0 50 0,0
22.09.2020 03:00:00 11,3 9,5 - - 16 9 - - S 1008,1 50 0,0
22.09.2020 02:00:00 11,5 9,8 - - 15 8 - - S 1009,1 50 0,0
22.09.2020 01:00:00 11,5 9,9 - - 16 9 - - S 1009,6 20 0,0
22.09.2020 00:00:00 11,1 9,5 - - 4 2 - - WNW 1010,8 50 0,0
21.09.2020 23:00:00 11,6 9,5 - - 13 7 - - SW 1011,6 35 0,0
21.09.2020 22:00:00 11,9 8,9 - - 13 7 - - WSW 1012,0 50 0,0
21.09.2020 21:00:00 12,1 8,6 - - 9 5 - - SW 1012,7 50 0,0
21.09.2020 20:00:00 11,6 8,9 - - 9 5 - - SSW 1012,8 45 0,0
21.09.2020 19:00:00 11,9 8,7 - - 15 8 - - SSW 1013,0 45 0,0
21.09.2020 18:00:00 12,4 8,5 - - 15 8 - - SSW 1013,5 30 0,0
21.09.2020 17:00:00 13,1 8,1 - - 13 7 - - SW 1013,8 50 0,0
21.09.2020 16:00:00 13,4 8,1 - - 13 7 - - SW 1014,0 35 0,0
21.09.2020 15:00:00 13,8 8,6 - - 11 6 - - W 1014,2 40 0,0
21.09.2020 14:00:00 13,6 9,1 - - 15 8 - - SSW 1014,5 50 0,0
21.09.2020 13:00:00 13,7 9,1 - - 16 9 - - SSW 1014,6 40 0,0
21.09.2020 12:00:00 13,4 9,0 - - 16 9 - - SSW 1014,7 35 0,0
21.09.2020 11:00:00 13,9 9,3 - - 8 4 - - WNW 1015,2 40 0,0
21.09.2020 10:00:00 12,4 9,0 - - 11 6 - - W 1015,5 35 0,0
21.09.2020 09:00:00 10,9 9,1 - - 8 4 - - WNW 1015,7 50 0,0
21.09.2020 08:00:00 7,9 7,7 - - 4 2 - - NNE 1016,5 23 0,0
21.09.2020 07:00:00 7,3 6,8 - - 5 3 - - NE 1016,8 35 0,0
21.09.2020 06:00:00 9,3 7,5 - - 11 6 - - WNW 1016,7 50 0,0
21.09.2020 05:00:00 8,8 7,9 - - 9 5 - - WNW 1016,8 50 0,0
21.09.2020 04:00:00 9,6 8,2 - - 11 6 - - W 1017,4 50 0,0
21.09.2020 03:00:00 8,1 7,0 - - 5 3 - - NW 1018,1 45 0,0
21.09.2020 02:00:00 7,7 6,8 - - 4 2 - - S 1018,9 12 0,0
21.09.2020 01:00:00 10,2 8,8 - - 8 4 - - NW 1019,4 45 0,0
21.09.2020 00:00:00 10,6 9,5 - - 21 11 - - S 1019,4 45 0,0
20.09.2020 23:00:00 10,2 10,2 - - 8 4 - - WSW 1020,5 50 0,0
20.09.2020 22:00:00 8,0 7,4 - - 4 2 - - N 1021,3 8 0,0
20.09.2020 21:00:00 9,3 8,5 - - 2 1 - - SSE 1021,2 19 0,0
20.09.2020 20:00:00 12,1 10,3 - - 9 5 - - NW 1020,7 50 0,0
20.09.2020 19:00:00 13,0 10,5 - - 5 3 - - NNE 1020,6 50 0,0
20.09.2020 18:00:00 15,7 11,2 - - 5 3 - - NW 1020,7 50 0,0
20.09.2020 17:00:00 17,3 11,0 - - 11 6 - - WNW 1021,1 45 0,0
20.09.2020 16:00:00 17,9 11,3 - - 13 7 - - NW 1021,5 50 0,0
20.09.2020 15:00:00 19,5 10,8 - - 8 4 - - SSW 1021,8 50 0,0
20.09.2020 14:00:00 19,1 10,9 - - 8 4 - - W 1022,4 40 0,0
20.09.2020 13:00:00 18,5 10,1 - - 9 5 - - S 1023,1 40 0,0
20.09.2020 12:00:00 16,9 10,6 - - 13 7 - - S 1023,6 45 0,0
20.09.2020 11:00:00 14,4 10,4 - - 8 4 - - SSE 1024,5 35 0,0
20.09.2020 10:00:00 11,4 9,6 - - 8 4 - - S 1025,2 45 0,0
20.09.2020 09:00:00 7,6 7,6 - - 4 2 - - NNE 1026,0 35 0,0
20.09.2020 08:00:00 4,2 4,2 - - 2 1 - - NNE 1026,6 0,6 0,0
20.09.2020 07:00:00 2,9 2,8 - - 4 2 - - S 1026,7 0,5 0,0
20.09.2020 06:00:00 3,8 3,5 - - 2 1 - - N 1026,7 0,9 0,0
20.09.2020 05:00:00 5,7 5,6 - - 4 2 - - E 1026,5 50 0,0
20.09.2020 04:00:00 5,9 5,5 - - 8 4 - - ESE 1026,4 45 0,0
20.09.2020 03:00:00 8,3 7,6 - - 11 6 - - SE 1026,3 50 0,0
20.09.2020 02:00:00 5,7 5,5 - - 8 4 - - ESE 1027,1 27 0,0
20.09.2020 01:00:00 6,5 6,2 - - 4 2 - - SSE 1027,2 18 0,0
20.09.2020 00:00:00 6,4 5,5 - - 2 1 - - SE 1027,4 50 0,0
19.09.2020 23:00:00 8,3 8,0 - - 4 2 - - SE 1027,0 50 0,0
19.09.2020 22:00:00 7,9 6,4 - - 2 1 - - SE 1027,0 50 0,0
19.09.2020 21:00:00 11,9 8,4 - - 5 3 - - E 1026,7 50 0,0
19.09.2020 20:00:00 11,4 7,3 - - 0 0 - - N 1026,3 45 0,0
19.09.2020 19:00:00 16,1 8,4 - - 13 7 - - SSE 1025,3 50 0,0
19.09.2020 18:00:00 17,4 8,8 - - 11 6 - - SSE 1025,2 45 0,0
19.09.2020 17:00:00 19,2 9,3 - - 11 6 - - SSE 1025,0 40 0,0
19.09.2020 16:00:00 19,6 9,1 - - 11 6 - - SE 1025,2 45 0,0
19.09.2020 15:00:00 19,6 8,8 - - 13 7 - - SSE 1025,6 30 0,0
19.09.2020 14:00:00 19,5 8,8 - - 15 8 - - SSE 1026,1 40 0,0
19.09.2020 13:00:00 18,6 8,2 - - 18 10 - - SSE 1026,5 40 0,0
19.09.2020 12:00:00 18,5 9,7 - - 5 3 - - E 1027,0 30 0,0
19.09.2020 11:00:00 16,5 10,4 - - 4 2 - - SSE 1027,3 50 0,0
19.09.2020 10:00:00 11,9 10,9 13,7 13,5 13 7 - - SSE 1027,9 35 0,0
19.09.2020 09:00:00 9,8 9,8 - - 0 0 - - N 1028,2 45 0,0
19.09.2020 08:00:00 8,2 8,2 - - 8 4 - - E 1028,5 21 0,2
19.09.2020 07:00:00 7,1 7,1 - - 5 3 - - SE 1028,4 5 0,0
19.09.2020 06:00:00 6,3 6,3 - - 2 1 - - ESE 1028,4 0,2 0,0
19.09.2020 05:00:00 5,9 5,7 - - 2 1 - - S 1028,7 0,2 0,0
19.09.2020 04:00:00 6,4 6,1 - - 0 0 - - N 1028,8 0,2 0,0
19.09.2020 03:00:00 9,1 8,9 - - 4 2 - - NNW 1028,8 11 0,0
19.09.2020 02:00:00 10,1 9,8 - - 4 2 - - ESE 1028,9 22 0,0
19.09.2020 01:00:00 9,9 9,6 - - 5 3 - - S 1029,0 1,6 0,0
19.09.2020 00:00:00 11,3 11,0 - - 8 4 - - S 1028,9 30 0,0
18.09.2020 23:00:00 10,8 10,4 - - 4 2 - - ESE 1029,0 28 0,0
18.09.2020 22:00:00 12,5 12,1 - - 4 2 - - S 1028,9 35 0,0
18.09.2020 21:00:00 13,3 12,0 - - 2 1 - - SE 1028,8 19 0,0
18.09.2020 20:00:00 16,3 13,2 - - 2 1 - - E 1028,2 50 0,0
18.09.2020 19:00:00 19,0 13,2 - - 9 5 - - SSE 1027,4 50 0,0
18.09.2020 18:00:00 19,5 13,2 - - 9 5 - - SSE 1027,4 50 0,0
18.09.2020 17:00:00 20,4 13,5 - - 5 3 - - ESE 1027,4 50 0,0
18.09.2020 16:00:00 20,6 13,1 - - 5 3 - - NNE 1027,6 45 0,0
18.09.2020 15:00:00 20,6 13,8 - - 5 3 - - SSW 1028,0 45 0,0
18.09.2020 14:00:00 19,7 13,4 - - 5 3 - - S 1028,5 45 0,0
18.09.2020 13:00:00 19,5 12,9 - - 5 3 - - S 1028,6 35 0,0
18.09.2020 12:00:00 19,2 13,1 - - 5 3 - - ESE 1029,0 45 0,0
18.09.2020 11:00:00 14,7 13,0 - - 4 2 - - NW 1029,9 22 0,0
18.09.2020 10:00:00 11,9 11,9 13,7 13,5 5 3 - - S 1030,3 35 0,0
18.09.2020 09:00:00 9,4 9,4 - - 2 1 - - E 1030,5 9 0,0
18.09.2020 08:00:00 6,3 6,3 - - 4 2 - - SE 1030,9 1,0 0,0
18.09.2020 07:00:00 4,4 4,4 - - 2 1 - - N 1030,8 0,2 0,0
18.09.2020 06:00:00 5,3 5,3 - - 2 1 - - NW 1030,4 0,2 0,0
18.09.2020 05:00:00 6,1 6,1 - - 4 2 - - SE 1030,2 0,4 0,0
18.09.2020 04:00:00 5,8 5,8 - - 2 1 - - S 1030,2 0,2 0,0
18.09.2020 03:00:00 5,7 5,6 - - 2 1 - - E 1030,7 0,2 0,0
18.09.2020 02:00:00 6,3 6,2 - - 2 1 - - WNW 1030,6 0,2 0,0
18.09.2020 01:00:00 6,8 6,7 - - 2 1 - - NE 1030,4 0,2 0,0
18.09.2020 00:00:00 7,0 6,9 - - 2 1 - - S 1030,5 0,2 0,0
17.09.2020 23:00:00 7,3 7,1 - - 0 0 - - N 1030,4 0,1 0,0
17.09.2020 22:00:00 8,2 7,9 - - 0 0 - - N 1030,3 0,2 0,0
17.09.2020 21:00:00 9,6 9,1 - - 2 1 - - SSE 1030,0 0,2 0,0
17.09.2020 20:00:00 11,4 10,6 - - 2 1 - - S 1029,5 10 0,0
17.09.2020 19:00:00 14,4 12,4 - - 4 2 - - NE 1029,0 30 0,0
17.09.2020 18:00:00 16,4 12,4 - - 11 6 - - NW 1028,7 35 0,0
17.09.2020 17:00:00 18,5 12,9 - - 8 4 - - NNW 1028,6 30 0,0
17.09.2020 16:00:00 18,9 12,8 - - 13 7 - - S 1028,8 35 0,0
17.09.2020 15:00:00 17,6 11,8 - - 16 9 - - S 1029,3 45 0,0
17.09.2020 14:00:00 17,5 11,7 - - 13 7 - - S 1029,9 24 0,0
17.09.2020 13:00:00 16,3 11,3 - - 15 8 - - S 1030,5 35 0,0
17.09.2020 12:00:00 13,9 9,9 - - 13 7 - - S 1031,0 40 0,0
17.09.2020 11:00:00 12,9 9,1 - - 13 7 - - S 1031,4 30 0,0
17.09.2020 10:00:00 11,9 8,5 13,7 13,5 16 9 - - S 1031,6 30 0,0
17.09.2020 09:00:00 10,9 8,2 - - 18 10 - - S 1031,7 35 0,0
17.09.2020 08:00:00 10,4 8,0 - - 15 8 - - S 1031,8 50 0,0
17.09.2020 07:00:00 10,3 7,7 - - 24 13 - - SSE 1031,3 50 0,0

tt = temperature
td = dewpoint
tt -20cm = temperature -20cm
tt -100cm = temperature -100cm
ff = wind speed
fx = gusts
dd = wind direction
ppp = reduced air pressure
vv = visibility
rr = precipitation

Next stations